Weather History for Syracuse, NY

Change the Weather History Date:

Friday, April 12, 2013

  Actual Average Record
Temperature  
Mean Temperature 38 °F 46 °F  
Max Temperature 42 °F 56 °F 83 °F (1945)
Min Temperature 33 °F 36 °F 19 °F (1967)
Degree Days  
Heating Degree Days 27 20  
Month to date heating degree days 288 263  
Since 1 July heating degree days 5623 6051  
Cooling Degree Days 0 0  
Month to date cooling degree days 0 0  
Year to date cooling degree days 0 0  
Moisture  
Dew Point 35 °F    
Average Humidity 83    
Maximum Humidity 93    
Minimum Humidity 73    
Precipitation  
Precipitation 0.83 in 0.12 in 1.29 in (1965)
Month to date precipitation 2.53 1.35  
Year to date precipitation 8.97 8.87  
Snow  
Snow 0.00 in 0.10 in 3.10 in (1993)
Month to date snowfall 12.0 2.3  
Since 1 July snowfall 115.4 122.2  
Snow Depth 0.00 in    
Sea Level Pressure  
Sea Level Pressure 29.74 in    
Wind  
Wind Speed 11 mph (ENE)    
Max Wind Speed 23 mph    
Max Gust Speed 28 mph    
Visibility 5 miles    
Events Rain    
T = Trace of Precipitation, MM = Missing Value Source: NWS Daily Summary

Daily Weather History Graph

Daily Weather History Graph

Search for Another Location

Airport:

Trip Planner

Search our weather history database for the weather conditions in past years. The results will help you decide how hot, cold, wet, or windy it might be!

Date:

Astronomy

Apr. 12, 2013 Rise Set
Actual Time 6:27 AM EDT 7:43 PM EDT
Civil Twilight 5:57 AM EDT 8:13 PM EDT
Nautical Twilight 5:22 AM EDT 8:48 PM EDT
Astronomical Twilight 4:45 AM EDT 9:26 PM EDT
Moon 7:32 AM EDT (4/12) 10:16 PM EDT (4/12)
Length of Visible Light 14h 15m
Length of Day
13h 16m
Waxing Crescent, 5% of the Moon is Illuminated
Apr 12
Waxing Crescent
Apr 18
First Quarter
Apr 25
Full
May 2
Last Quarter
May 9
New

Hourly Weather History & Observations

Time (EDT) Temp. Windchill Dew Point Humidity Pressure Visibility Wind Dir Wind Speed Gust Speed Precip Events Conditions
12:54 AM 34.0 °F 24.6 °F 28.9 °F 82% 29.99 in 10.0 mi East 13.8 mph 20.7 mph 0.00 in   Light Drizzle
1:54 AM 34.0 °F 24.6 °F 28.9 °F 82% 29.97 in 10.0 mi East 13.8 mph 25.3 mph 0.00 in Rain Light Rain
2:11 AM 33.8 °F 22.8 °F 28.4 °F 81% 29.95 in 10.0 mi East 18.4 mph - 0.00 in Rain Light Rain
2:54 AM 33.1 °F 22.6 °F 28.9 °F 85% 29.92 in 10.0 mi ENE 16.1 mph - 0.00 in Rain Light Rain
3:23 AM 33.8 °F 24.3 °F 28.4 °F 81% 29.90 in 10.0 mi East 13.8 mph - 0.00 in   Overcast
3:31 AM 33.8 °F 22.5 °F 28.4 °F 81% 29.89 in 10.0 mi East 19.6 mph 25.3 mph 0.00 in   Overcast
3:54 AM 34.0 °F 23.0 °F 30.0 °F 85% 29.88 in 10.0 mi East 18.4 mph 27.6 mph 0.00 in   Overcast
4:54 AM 34.0 °F 22.7 °F 28.9 °F 82% 29.86 in 10.0 mi East 19.6 mph 27.6 mph N/A   Overcast
5:54 AM 35.1 °F 24.1 °F 30.0 °F 82% 29.81 in 10.0 mi East 19.6 mph 27.6 mph N/A   Overcast
6:54 AM 35.1 °F 25.2 °F 30.9 °F 85% 29.78 in 10.0 mi East 16.1 mph 26.5 mph N/A   Overcast
7:54 AM 36.0 °F 26.3 °F 32.0 °F 86% 29.74 in 10.0 mi East 16.1 mph - 0.00 in Rain Light Rain
8:54 AM 36.0 °F 26.0 °F 33.1 °F 89% 29.72 in 4.0 mi East 17.3 mph 24.2 mph 0.07 in Rain Rain
9:06 AM 35.6 °F 26.2 °F 33.8 °F 93% 29.70 in 2.5 mi ENE 15.0 mph - 0.02 in Rain Rain
9:13 AM 35.6 °F 25.9 °F 33.8 °F 93% 29.70 in 2.0 mi East 16.1 mph - 0.05 in Rain Heavy Rain
9:26 AM 37.4 °F 27.5 °F 33.8 °F 87% 29.69 in 3.0 mi East 18.4 mph - 0.11 in Rain Heavy Rain
9:33 AM 37.4 °F 27.5 °F 33.8 °F 87% 29.69 in 2.0 mi East 18.4 mph - 0.15 in Rain Heavy Rain
9:44 AM 37.4 °F 28.2 °F 33.8 °F 87% 29.68 in 3.0 mi ENE 16.1 mph - 0.19 in Rain Rain
9:51 AM 37.4 °F 28.2 °F 33.8 °F 87% 29.67 in 4.0 mi ENE 16.1 mph 21.9 mph 0.21 in Rain Rain
9:54 AM 37.0 °F 27.7 °F 34.0 °F 89% 29.67 in 3.0 mi East 16.1 mph 21.9 mph 0.21 in Rain Rain
10:21 AM 37.4 °F 28.5 °F 35.6 °F 93% 29.68 in 2.5 mi East 15.0 mph - 0.07 in Rain Rain
10:54 AM 37.0 °F 28.5 °F 35.1 °F 93% 29.69 in 3.0 mi ENE 13.8 mph - 0.16 in Rain Rain
11:54 AM 39.0 °F 30.6 °F 37.0 °F 93% 29.69 in 4.0 mi East 15.0 mph - 0.15 in Rain Rain
12:54 PM 39.9 °F 33.4 °F 37.0 °F 89% 29.68 in 8.0 mi East 10.4 mph - 0.08 in Rain Rain
1:39 PM 39.2 °F 33.0 °F 37.4 °F 93% 29.67 in 5.0 mi ENE 9.2 mph - 0.01 in Rain Light Rain
1:54 PM 39.9 °F 32.9 °F 37.9 °F 93% 29.66 in 2.5 mi East 11.5 mph - 0.03 in Rain Light Rain
2:06 PM 39.2 °F 32.0 °F 37.4 °F 93% 29.65 in 1.5 mi East 11.5 mph - 0.03 in Rain Rain
2:11 PM 39.2 °F 32.0 °F 37.4 °F 93% 29.65 in 2.0 mi ENE 11.5 mph - 0.04 in Rain Rain
2:15 PM 39.2 °F 32.0 °F 37.4 °F 93% 29.65 in 3.0 mi ENE 11.5 mph - 0.05 in Rain Rain
2:31 PM 41.0 °F 33.5 °F 39.2 °F 93% 29.65 in 2.0 mi East 13.8 mph - 0.06 in Rain Light Rain
2:42 PM 41.0 °F 34.7 °F 39.2 °F 93% 29.64 in 3.0 mi East 10.4 mph - 0.07 in Rain Light Rain
2:54 PM 41.0 °F 34.7 °F 39.0 °F 93% 29.64 in 3.0 mi ENE 10.4 mph - 0.07 in Rain Light Rain
3:01 PM 41.0 °F 33.9 °F 39.2 °F 93% 29.64 in 3.0 mi East 12.7 mph - 0.00 in Rain Light Rain
3:54 PM 41.0 °F 35.2 °F 39.0 °F 93% 29.64 in 3.0 mi ENE 9.2 mph - 0.01 in   Overcast
4:03 PM 41.0 °F 34.3 °F 39.2 °F 93% 29.63 in 3.0 mi East 11.5 mph - N/A   Overcast
4:12 PM 41.0 °F 34.3 °F 39.2 °F 93% 29.63 in 3.0 mi East 11.5 mph - N/A   Overcast
4:54 PM 41.0 °F 34.7 °F 39.0 °F 93% 29.64 in 3.0 mi East 10.4 mph - N/A   Overcast
5:54 PM 41.0 °F 38.0 °F 39.0 °F 93% 29.69 in 3.0 mi ENE 4.6 mph - 0.01 in Rain Light Rain
6:33 PM 39.2 °F 35.0 °F 39.2 °F 100% 29.70 in 2.5 mi NE 5.8 mph - 0.00 in   Overcast
6:54 PM 39.9 °F 37.8 °F 39.0 °F 97% 29.72 in 2.0 mi ENE 3.5 mph - 0.01 in Rain Light Rain
7:43 PM 39.2 °F 35.0 °F 37.4 °F 93% 29.73 in 3.0 mi ENE 5.8 mph - 0.01 in   Light Drizzle
7:54 PM 39.0 °F 34.8 °F 37.9 °F 96% 29.74 in 3.0 mi ENE 5.8 mph - 0.01 in   Light Drizzle
8:36 PM 39.2 °F 35.9 °F 37.4 °F 93% 29.74 in 3.0 mi ENE 4.6 mph - 0.01 in Rain Light Rain
8:47 PM 39.2 °F - 39.2 °F 100% 29.75 in 3.0 mi Calm Calm - 0.01 in Rain Light Rain
8:54 PM 39.0 °F - 37.9 °F 96% 29.75 in 3.0 mi Calm Calm - 0.02 in Rain Light Rain
9:21 PM 39.2 °F 35.9 °F 37.4 °F 93% 29.76 in 3.0 mi ESE 4.6 mph - 0.00 in   Light Drizzle
9:54 PM 39.9 °F 37.8 °F 37.9 °F 93% 29.78 in 3.0 mi ESE 3.5 mph - 0.00 in   Overcast
10:26 PM 39.2 °F - 37.4 °F 93% 29.78 in 3.0 mi Calm Calm - 0.00 in Rain Light Rain
10:54 PM 41.0 °F 37.1 °F 37.9 °F 89% 29.79 in 10.0 mi WSW 5.8 mph - 0.00 in   Overcast
11:54 PM 41.0 °F 36.4 °F 34.0 °F 76% 29.80 in 10.0 mi WSW 6.9 mph - 0.00 in   Overcast